Location: Newark
(29.9790°N, 31.1340°E)
Time: 21:26:48
(UTC+00:00)

Vanguard 3 - All Passes

Search period start: 29 January 2020 00:00
Search period end: 08 February 2020 00:00
Orbit: 507 x 3264 km, 33.4° (Epoch: 29 January)

Date Brightness Start Highest point End Pass type
(mag) Time Alt. Az. Time Alt. Az. Time Alt. Az.
29 Jan - 10:58:31 10° SSW 11:10:43 33° SE 11:26:42 10° E daylight
29 Jan - 13:08:44 10° SW 13:25:37 72° SSE 13:45:20 10° ENE daylight
29 Jan - 15:23:39 10° W 15:43:31 82° N 16:01:07 10° E visible
29 Jan - 17:41:32 10° WNW 18:01:42 84° NNE 18:15:17 10° E visible
29 Jan - 20:00:18 10° WNW 20:17:04 60° SSW 20:26:57 10° SE visible
29 Jan - 22:21:39 10° W 22:28:31 17° SW 22:33:44 10° SSW visible
30 Jan - 09:47:52 10° SSE 09:55:52 18° SE 10:05:47 10° E daylight
30 Jan - 11:54:35 10° SW 12:09:00 55° SE 12:28:03 10° ENE daylight
30 Jan - 14:07:21 10° WSW 14:25:39 90° SSE 14:45:03 10° ENE daylight
30 Jan - 16:23:52 10° W 16:44:15 80° N 17:00:18 10° E visible
30 Jan - 18:42:09 10° WNW 19:01:25 80° SSW 19:13:28 10° ESE visible
30 Jan - 21:01:33 10° WNW 21:14:47 35° SW 21:23:11 10° SSE visible
31 Jan - 10:41:41 10° SSW 10:53:24 36° SE 11:09:39 10° ENE daylight
31 Jan - 12:52:09 10° WSW 13:08:12 76° SSE 13:28:19 10° ENE daylight
31 Jan - 15:06:53 10° W 15:26:17 81° N 15:44:37 10° E daylight
31 Jan - 17:24:18 10° WNW 17:44:41 87° NNE 17:59:09 10° ESE visible
31 Jan - 19:42:52 10° WNW 20:00:09 56° SW 20:10:49 10° SE visible
31 Jan - 22:05:19 10° W 22:11:43 15° SW 22:16:48 10° SSW visible
01 Feb - 09:30:37 10° S 09:38:44 20° SE 09:49:20 10° E daylight
01 Feb - 11:38:01 10° SW 11:51:38 59° SE 12:10:51 10° ENE daylight
01 Feb - 13:50:48 10° WSW 14:08:19 87° NNW 14:28:14 10° ENE daylight
01 Feb - 16:06:55 10° W 16:27:05 81° N 16:44:00 10° E visible
01 Feb - 18:24:45 10° WNW 18:44:24 75° SSW 18:57:21 10° ESE visible
01 Feb - 20:44:22 10° W 20:57:50 32° SW 21:06:47 10° SSE visible
02 Feb - 10:25:03 10° SSW 10:36:08 40° SE 10:52:29 10° ENE daylight
02 Feb - 12:35:42 10° WSW 12:50:54 81° SSE 13:11:12 10° ENE daylight
02 Feb - 14:50:13 10° W 15:09:03 80° N 15:28:02 10° E daylight
02 Feb - 17:07:07 10° WNW 17:27:34 90° SSW 17:42:56 10° ESE visible
02 Feb - 19:25:27 10° WNW 19:43:06 51° SW 19:54:32 10° SE visible
02 Feb - 21:49:18 10° WSW 21:54:50 13° SW 21:59:29 10° SSW visible
03 Feb - 09:13:40 10° S 09:21:39 22° SE 09:32:38 10° E daylight
03 Feb - 11:21:38 10° SW 11:34:23 64° SSE 11:53:32 10° ENE daylight
03 Feb - 13:34:21 10° WSW 13:51:04 85° NNW 14:11:19 10° ENE daylight
03 Feb - 15:50:04 10° W 16:09:53 82° N 16:27:36 10° E visible
03 Feb - 18:07:25 10° WNW 18:27:15 71° SSW 18:41:05 10° SE visible
03 Feb - 20:27:17 10° W 20:40:47 29° SW 20:50:14 10° S visible
04 Feb - 10:08:36 10° SSW 10:19:00 43° SE 10:35:12 10° ENE daylight
04 Feb - 12:19:24 10° WSW 12:33:42 85° SSE 12:53:59 10° ENE daylight
04 Feb - 14:33:40 10° W 14:51:49 80° N 15:11:21 10° E daylight
04 Feb - 16:50:02 10° WNW 17:10:19 86° SSW 17:26:35 10° ESE visible
04 Feb - 19:08:08 10° WNW 19:25:54 47° SW 19:38:06 10° SSE visible
04 Feb - 21:33:55 10° WSW 21:37:53 11° SW 21:41:25 10° SW visible
05 Feb - 08:56:59 10° S 09:04:41 25° SE 09:15:46 10° E daylight
05 Feb - 11:05:23 10° SW 11:17:17 68° SSE 11:36:09 10° ENE daylight
05 Feb - 13:18:03 10° W 13:33:54 82° N 13:54:20 10° E daylight
05 Feb - 15:33:18 10° WNW 15:52:38 84° NNE 16:11:04 10° ESE visible
05 Feb - 17:50:11 10° WNW 18:09:57 66° SSW 18:24:39 10° SE visible
05 Feb - 20:10:19 10° W 20:23:38 26° SW 20:33:27 10° S visible
06 Feb - 09:52:19 10° SSW 10:02:01 47° SE 10:17:50 10° ENE daylight
06 Feb - 12:03:14 10° WSW 12:16:38 89° SSE 12:36:42 10° ENE daylight
06 Feb - 14:17:13 10° W 14:34:37 80° N 14:54:35 10° E daylight
06 Feb - 16:33:03 10° WNW 16:53:00 82° SSW 17:10:05 10° ESE visible
06 Feb - 18:50:56 10° WNW 19:08:36 43° SW 19:21:30 10° SSE visible
07 Feb - 08:40:29 10° S 08:47:48 27° SE 08:58:48 10° E daylight
07 Feb - 10:49:16 10° SW 11:00:20 73° SSE 11:18:42 10° ENE daylight
07 Feb - 13:01:51 10° W 13:16:49 81° N 13:37:15 10° E daylight
07 Feb - 15:16:37 10° WNW 15:35:20 87° NNE 15:54:25 10° ESE daylight
07 Feb - 17:33:03 10° WNW 17:52:34 61° SSW 18:08:04 10° SE visible
07 Feb - 19:53:32 10° W 20:06:24 23° SW 20:16:25 10° S visible
